Weather in Podgorodnyaya Pokrovka

Russia / Orenburg Oblast     51°49′55″N   54°58′34″E
temp.,
°C
wind,
m/s
gust,
m/s
humid.,
%
clouds,
%
prec.,
mm/h
press.,
hPa
HPBL,
m
23 october, sat
sat2323:00+11sw818535 0.0 1013627
02:00+10sw715560 0.0 1013478
05:00+9sw6145911 0.0 1014384
08:00+8sw61261100 0.0 1014303
11:00+11sw61258100 0.0 1016472
14:00+14wsw71155100 0.0 1017740
17:00+14sw61158100 0.0 1017665
20:00+11sw41168100 0.0 1018269
24 october, sun
sun2423:00+10ssw3872100 0.0 1018145
02:00+11s4868100 0.0 1017189
05:00+11s61384100 0.0 1015437
08:00+10ssw71485100 0.0 1013522
11:00+12sw81376100 0.1 1013775
14:00+10wsw51092100 1.9 1014553
17:00+10wsw5990100 4.0 1015561
20:00+9wsw3586100 0.2 101695
25 october, mon
mon2523:00+8wnw2269100 0.2 101622
02:00+6wnw1171100 0.0 101610
05:00+6n1173100 0.0 101510
08:00+6w1172100 0.0 101510
11:00+7sw2373100 0.2 1015170
14:00+9w4457100 0.0 10141135
17:00+9wnw3553100 0.1 10141246
20:00+6wnw376582 0.1 1016203
26 october, tue
tue2623:00+4nw510825 0.1 1018405
02:00+4nnw6874100 0.0 1019853
05:00+3n797340 0.1 1022749
08:000n5107285 0.0 1025525
11:00+2n5755100 0.0 1027548
14:00+5nnw33385 0.0 1027852
17:00+5wnw33338 0.0 1027959
20:00+2wsw3446100 0.0 102879
27 october, wed
wed2723:00+2wsw385099 0.0 1028207
02:00+1sw495273 0.0 1028245
05:000sw410565 0.0 1028264
08:00−1sw411625 0.0 1028258
11:00+3wsw610505 0.0 1028474
14:00+7wsw79415 0.0 1027819
17:00+7wsw6104167 0.0 1026773
20:00+4sw5124935 0.0 1027301